QPF
0.00 0.00 0.00 0.00 0.00 0.00 0.00 0.00 0.00 0.00 0.00 0.00 0.00 0.00 0.00 0.00 0.00 0.00 0.00 0.00 0.00 0.00 0.00 0.00 0.00 0.01 0.01 0.01 0.01 0.02 0.02 0.02 0.02 0.02 0.02 0.03 0.03 0.03
0.00 0.00 0.00 0.00 0.00 0.00 0.00 0.00 0.00 0.00 0.00 0.00 0.00 0.00 0.00 0.00 0.00 0.00 0.00 0.00 0.00 0.00 0.00 0.00 0.00 0.01 0.01 0.01 0.02 0.02 0.02 0.02 0.03 0.03 0.03 0.03 0.03 0.04
0.00 0.00 0.00 0.00 0.00 0.00 0.00 0.00 0.00 0.00 0.00 0.00 0.00 0.00 0.00 0.00 0.00 0.00 0.00 0.00 0.00 0.00 0.00 0.00 0.01 0.01 0.01 0.01 0.01 0.02 0.02 0.02 0.02 0.03 0.03 0.03 0.04 0.04
0.00 0.00 0.00 0.00 0.00 0.00 0.00 0.00 0.00 0.00 0.00 0.00 0.00 0.00 0.00 0.00 0.00 0.00 0.00 0.00 0.00 0.00 0.00 0.00 0.01 0.01 0.01 0.01 0.02 0.02 0.02 0.02 0.02 0.02 0.02 0.03 0.03 0.04
0.00 0.00 0.00 0.00 0.00 0.00 0.00 0.00 0.00 0.00 0.00 0.00 0.00 0.00 0.00 0.00 0.00 0.00 0.00 0.00 0.00 0.00 0.00 0.00 0.00 0.00 0.01 0.01 0.01 0.01 0.01 0.01 0.01 0.02 0.02 0.03 0.03 0.04
0.00 0.00 0.00 0.00 0.00 0.00 0.00 0.00 0.00 0.00 0.00 0.00 0.00 0.00 0.00 0.00 0.00 0.00 0.00 0.00 0.00 0.00 0.00 0.00 0.00 0.00 0.00 0.00 0.00 0.00 0.00 0.01 0.01 0.02 0.03 0.04 0.04 0.04
0.00 0.00 0.00 0.00 0.00 0.00 0.00 0.00 0.00 0.00 0.00 0.00 0.00 0.00 0.00 0.00 0.00 0.00 0.00 0.00 0.00 0.00 0.00 0.00 0.00 0.00 0.00 0.00 0.00 0.00 0.01 0.01 0.02 0.03 0.04 0.04 0.03 0.03
0.00 0.00 0.00 0.00 0.00 0.00 0.00 0.00 0.00 0.00 0.00 0.00 0.00 0.00 0.00 0.00 0.00 0.00 0.00 0.00 0.01 0.00 0.00 0.00 0.00 0.00 0.00 0.00 0.00 0.00 0.01 0.02 0.03 0.03 0.03 0.03 0.03 0.03
0.00 0.00 0.00 0.00 0.00 0.00 0.00 0.00 0.00 0.00 0.00 0.00 0.00 0.00 0.00 0.00 0.00 0.01 0.01 0.01 0.01 0.01 0.02 0.02 0.00 0.00 0.00 0.00 0.00 0.00 0.01 0.02 0.02 0.02 0.02 0.03 0.03 0.03
0.00 0.00 0.00 0.00 0.00 0.00 0.00 0.00 0.00 0.00 0.00 0.00 0.00 0.00 0.00 0.01 0.01 0.02 0.03 0.04 0.03 0.02 0.02 0.02 0.00 0.00 0.00 0.00 0.00 0.00 0.01 0.01 0.01 0.01 0.02 0.02 0.03 0.03
0.00 0.00 0.00 0.00 0.00 0.00 0.00 0.00 0.00 0.00 0.00 0.00 0.01 0.01 0.01 0.02 0.02 0.03 0.04 0.04 0.03 0.01 0.00 0.01 0.00 0.00 0.00 0.00 0.00 0.00 0.00 0.00 0.00 0.01 0.01 0.02 0.03 0.03
0.00 0.00 0.00 0.00 0.00 0.00 0.00 0.00 0.00 0.00 0.00 0.00 0.01 0.01 0.01 0.01 0.01 0.02 0.02 0.03 0.02 0.02 0.00 0.01 0.01 0.01 0.01 0.00 0.00 0.00 0.00 0.00 0.00 0.00 0.01 0.02 0.02 0.02
0.00 0.00 0.00 0.00 0.00 0.00 0.01 0.00 0.01 0.01 0.01 0.01 0.01 0.01 0.01 0.01 0.00 0.01 0.01 0.02 0.03 0.02 0.01 0.03 0.03 0.02 0.02 0.01 0.00 0.00 0.00 0.00 0.00 0.00 0.01 0.01 0.02 0.02
0.00 0.00 0.00 0.00 0.00 0.01 0.01 0.01 0.01 0.01 0.01 0.01 0.01 0.01 0.01 0.01 0.01 0.01 0.01 0.01 0.01 0.01 0.01 0.02 0.03 0.02 0.03 0.01 0.00 0.00 0.00 0.00 0.00 0.00 0.01 0.01 0.01 0.01
0.00 0.00 0.00 0.00 0.00 0.00 0.00 0.01 0.01 0.00 0.00 0.01 0.01 0.01 0.01 0.01 0.01 0.01 0.00 0.00 0.00 0.00 0.00 0.00 0.01 0.01 0.02 0.02 0.01 0.00 0.00 0.00 0.00 0.00 0.01 0.01 0.01 0.01
0.00 0.00 0.00 0.00 0.00 0.00 0.00 0.00 0.00 0.00 0.00 0.01 0.01 0.01 0.01 0.01 0.00 0.00 0.00 0.01 0.00 0.00 0.00 0.00 0.00 0.01 0.01 0.01 0.01 0.01 0.00 0.01 0.01 0.00 0.00 0.00 0.00 0.00
0.01 0.01 0.00 0.00 0.00 0.00 0.00 0.00 0.00 0.00 0.01 0.01 0.01 0.01 0.00 0.00 0.00 0.00 0.01 0.01 0.01 0.00 0.00 0.00 0.00 0.00 0.00 0.00 0.01 0.00 0.01 0.01 0.01 0.01 0.00 0.00 0.00 0.00
0.00 0.00 0.00 0.00 0.00 0.00 0.00 0.00 0.00 0.01 0.01 0.01 0.01 0.01 0.01 0.01 0.00 0.00 0.00 0.01 0.01 0.00 0.00 0.00 0.00 0.00 0.00 0.00 0.00 0.01 0.01 0.01 0.00 0.00 0.00 0.01 0.00 0.00
0.00 0.00 0.00 0.00 0.00 0.00 0.00 0.00 0.00 0.00 0.00 0.00 0.00 0.00 0.00 0.00 0.00 0.00 0.00 0.01 0.01 0.00 0.00 0.00 0.01 0.01 0.01 0.00 0.00 0.00 0.01 0.01 0.00 0.00 0.00 0.01 0.01 0.00
0.00 0.00 0.00 0.00 0.00 0.00 0.00 0.00 0.00 0.00 0.00 0.00 0.00 0.00 0.00 0.00 0.01 0.00 0.00 0.01 0.01 0.00 0.00 0.00 0.01 0.01 0.02 0.01 0.01 0.00 0.00 0.01 0.01 0.01 0.00 0.00 0.01 0.01
0.00 0.00 0.00 0.00 0.00 0.00 0.00 0.00 0.00 0.00 0.00 0.00 0.00 0.00 0.00 0.01 0.01 0.00 0.00 0.01 0.01 0.01 0.01 0.00 0.00 0.01 0.01 0.01 0.01 0.00 0.00 0.00 0.01 0.01 0.01 0.01 0.01 0.01
0.00 0.00 0.00 0.00 0.00 0.00 0.00 0.00 0.00 0.00 0.00 0.00 0.00 0.00 0.00 0.01 0.01 0.00 0.00 0.00 0.00 0.01 0.00 0.00 0.00 0.01 0.01 0.01 0.01 0.00 0.01 0.01 0.00 0.00 0.01 0.01 0.01 0.02
0.00 0.00 0.00 0.00 0.00 0.00 0.01 0.01 0.01 0.01 0.01 0.00 0.00 0.00 0.01 0.01 0.01 0.00 0.00 0.00 0.00 0.01 0.01 0.01 0.01 0.01 0.01 0.00 0.00 0.00 0.00 0.00 0.00 0.00 0.00 0.00 0.00 0.01
MSLP
1021.69 1022.15 1022.59 1023.00 1023.36 1023.66 1023.88 1024.02 1024.07 1024.04 1023.93 1023.76 1023.54 1023.29 1023.00 1022.70 1022.40 1022.09 1021.78 1021.48 1021.18 1020.87 1020.55 1020.22 1019.87 1019.49 1019.09 1018.68 1018.26 1017.84 1017.44 1017.05 1016.68 1016.32 1015.96 1015.58 1015.16 1014.68
1021.47 1021.93 1022.36 1022.76 1023.11 1023.40 1023.62 1023.77 1023.84 1023.84 1023.77 1023.64 1023.44 1023.20 1022.92 1022.61 1022.29 1021.96 1021.63 1021.31 1020.99 1020.68 1020.35 1020.01 1019.64 1019.24 1018.81 1018.35 1017.89 1017.43 1016.99 1016.58 1016.20 1015.83 1015.47 1015.08 1014.66 1014.16
1021.13 1021.59 1022.00 1022.38 1022.71 1022.99 1023.21 1023.37 1023.46 1023.50 1023.47 1023.37 1023.21 1023.00 1022.74 1022.43 1022.11 1021.78 1021.44 1021.11 1020.78 1020.46 1020.12 1019.76 1019.38 1018.95 1018.49 1018.00 1017.50 1017.01 1016.54 1016.10 1015.70 1015.32 1014.94 1014.54 1014.09 1013.57
1020.69 1021.12 1021.52 1021.88 1022.18 1022.44 1022.65 1022.82 1022.94 1023.00 1023.01 1022.96 1022.84 1022.66 1022.43 1022.15 1021.84 1021.52 1021.19 1020.86 1020.53 1020.20 1019.86 1019.50 1019.10 1018.65 1018.17 1017.65 1017.13 1016.61 1016.11 1015.65 1015.22 1014.82 1014.42 1013.99 1013.50 1012.94
1020.15 1020.57 1020.94 1021.26 1021.54 1021.78 1021.98 1022.14 1022.27 1022.36 1022.40 1022.38 1022.31 1022.17 1021.97 1021.73 1021.45 1021.15 1020.84 1020.53 1020.22 1019.90 1019.57 1019.21 1018.81 1018.36 1017.86 1017.33 1016.79 1016.24 1015.72 1015.24 1014.78 1014.35 1013.92 1013.45 1012.93 1012.32
1019.55 1019.95 1020.29 1020.59 1020.84 1021.05 1021.23 1021.37 1021.50 1021.59 1021.64 1021.65 1021.61 1021.51 1021.35 1021.15 1020.91 1020.65 1020.38 1020.10 1019.83 1019.54 1019.23 1018.89 1018.50 1018.06 1017.57 1017.03 1016.48 1015.92 1015.38 1014.87 1014.39 1013.92 1013.45 1012.95 1012.39 1011.74
1018.93 1019.31 1019.63 1019.89 1020.10 1020.28 1020.43 1020.55 1020.65 1020.73 1020.78 1020.79 1020.77 1020.69 1020.57 1020.41 1020.22 1020.01 1019.79 1019.57 1019.34 1019.10 1018.84 1018.53 1018.16 1017.74 1017.27 1016.74 1016.19 1015.62 1015.07 1014.54 1014.03 1013.53 1013.03 1012.49 1011.90 1011.23
1018.34 1018.68 1018.97 1019.20 1019.38 1019.51 1019.61 1019.69 1019.76 1019.81 1019.84 1019.84 1019.82 1019.76 1019.67 1019.55 1019.41 1019.26 1019.10 1018.94 1018.77 1018.58 1018.37 1018.10 1017.78 1017.39 1016.94 1016.43 1015.88 1015.32 1014.76 1014.22 1013.69 1013.17 1012.64 1012.09 1011.48 1010.80
1017.76 1018.08 1018.33 1018.52 1018.66 1018.75 1018.81 1018.84 1018.86 1018.87 1018.86 1018.84 1018.81 1018.76 1018.69 1018.60 1018.51 1018.41 1018.32 1018.22 1018.12 1017.99 1017.83 1017.61 1017.33 1016.98 1016.56 1016.08 1015.55 1015.00 1014.44 1013.89 1013.36 1012.83 1012.29 1011.73 1011.12 1010.46
1017.20 1017.48 1017.70 1017.86 1017.96 1018.01 1018.03 1018.01 1017.98 1017.95 1017.90 1017.86 1017.80 1017.75 1017.70 1017.64 1017.59 1017.54 1017.50 1017.46 1017.41 1017.34 1017.23 1017.06 1016.82 1016.51 1016.13 1015.67 1015.17 1014.64 1014.10 1013.56 1013.03 1012.51 1011.98 1011.42 1010.84 1010.21
1016.61 1016.87 1017.06 1017.20 1017.27 1017.29 1017.27 1017.22 1017.15 1017.08 1017.00 1016.93 1016.86 1016.80 1016.76 1016.72 1016.70 1016.69 1016.70 1016.70 1016.70 1016.67 1016.60 1016.47 1016.27 1016.00 1015.65 1015.24 1014.77 1014.27 1013.76 1013.24 1012.73 1012.22 1011.71 1011.18 1010.63 1010.04
1015.98 1016.21 1016.39 1016.51 1016.57 1016.58 1016.54 1016.47 1016.38 1016.28 1016.18 1016.09 1016.02 1015.96 1015.92 1015.90 1015.90 1015.92 1015.95 1015.99 1016.01 1016.01 1015.97 1015.87 1015.70 1015.46 1015.16 1014.78 1014.36 1013.90 1013.42 1012.94 1012.46 1011.98 1011.50 1011.00 1010.49 1009.96
1015.31 1015.52 1015.70 1015.82 1015.88 1015.89 1015.86 1015.78 1015.69 1015.58 1015.47 1015.38 1015.30 1015.24 1015.21 1015.20 1015.22 1015.26 1015.30 1015.35 1015.39 1015.40 1015.37 1015.29 1015.15 1014.94 1014.67 1014.34 1013.96 1013.55 1013.12 1012.68 1012.24 1011.79 1011.34 1010.88 1010.41 1009.93
1014.61 1014.83 1015.01 1015.15 1015.23 1015.25 1015.23 1015.17 1015.08 1014.97 1014.87 1014.78 1014.71 1014.66 1014.63 1014.64 1014.66 1014.70 1014.76 1014.81 1014.85 1014.86 1014.84 1014.77 1014.65 1014.47 1014.23 1013.94 1013.61 1013.25 1012.86 1012.46 1012.06 1011.65 1011.23 1010.80 1010.37 1009.92
1013.97 1014.19 1014.39 1014.54 1014.64 1014.69 1014.68 1014.64 1014.56 1014.46 1014.37 1014.28 1014.21 1014.17 1014.16 1014.17 1014.20 1014.25 1014.30 1014.35 1014.39 1014.40 1014.38 1014.31 1014.20 1014.05 1013.84 1013.59 1013.30 1012.98 1012.64 1012.28 1011.91 1011.53 1011.13 1010.73 1010.32 1009.90
1013.44 1013.68 1013.89 1014.06 1014.18 1014.24 1014.24 1014.20 1014.12 1014.03 1013.93 1013.85 1013.79 1013.75 1013.75 1013.76 1013.81 1013.86 1013.91 1013.96 1014.00 1014.01 1013.99 1013.93 1013.83 1013.69 1013.51 1013.29 1013.03 1012.75 1012.44 1012.11 1011.76 1011.40 1011.01 1010.62 1010.22 1009.82
1013.10 1013.35 1013.57 1013.75 1013.86 1013.91 1013.90 1013.85 1013.75 1013.64 1013.54 1013.44 1013.38 1013.35 1013.35 1013.38 1013.43 1013.50 1013.56 1013.62 1013.66 1013.67 1013.65 1013.60 1013.51 1013.38 1013.22 1013.02 1012.79 1012.53 1012.24 1011.92 1011.58 1011.22 1010.84 1010.44 1010.04 1009.64
1012.99 1013.24 1013.45 1013.60 1013.69 1013.71 1013.66 1013.57 1013.43 1013.29 1013.15 1013.03 1012.96 1012.92 1012.93 1012.97 1013.04 1013.13 1013.21 1013.29 1013.35 1013.37 1013.36 1013.32 1013.23 1013.11 1012.96 1012.77 1012.55 1012.29 1012.01 1011.69 1011.35 1010.98 1010.59 1010.18 1009.77 1009.35
1013.09 1013.32 1013.49 1013.61 1013.64 1013.60 1013.49 1013.33 1013.13 1012.93 1012.74 1012.59 1012.49 1012.45 1012.46 1012.52 1012.62 1012.73 1012.85 1012.96 1013.04 1013.09 1013.09 1013.06 1012.98 1012.87 1012.72 1012.53 1012.31 1012.05 1011.76 1011.44 1011.08 1010.70 1010.29 1009.86 1009.42 1008.98
1013.34 1013.52 1013.65 1013.70 1013.66 1013.54 1013.35 1013.10 1012.83 1012.56 1012.32 1012.12 1012.00 1011.95 1011.97 1012.05 1012.17 1012.32 1012.48 1012.62 1012.74 1012.81 1012.84 1012.82 1012.75 1012.64 1012.49 1012.30 1012.07 1011.81 1011.51 1011.18 1010.82 1010.42 1009.99 1009.53 1009.07 1008.59
1013.65 1013.78 1013.84 1013.81 1013.69 1013.48 1013.20 1012.87 1012.52 1012.18 1011.88 1011.65 1011.50 1011.44 1011.47 1011.57 1011.72 1011.91 1012.10 1012.29 1012.44 1012.55 1012.60 1012.59 1012.54 1012.43 1012.28 1012.09 1011.86 1011.60 1011.30 1010.97 1010.60 1010.20 1009.75 1009.28 1008.78 1008.27
1013.93 1013.99 1013.97 1013.87 1013.67 1013.38 1013.02 1012.62 1012.21 1011.81 1011.47 1011.21 1011.04 1010.97 1011.01 1011.12 1011.30 1011.52 1011.76 1011.98 1012.16 1012.30 1012.38 1012.39 1012.35 1012.26 1012.11 1011.93 1011.72 1011.47 1011.18 1010.86 1010.50 1010.10 1009.66 1009.17 1008.64 1008.09
1014.09 1014.08 1014.00 1013.83 1013.57 1013.23 1012.82 1012.37 1011.92 1011.49 1011.12 1010.84 1010.66 1010.59 1010.63 1010.76 1010.96 1011.20 1011.46 1011.71 1011.92 1012.08 1012.18 1012.22 1012.20 1012.12 1012.00 1011.84 1011.65 1011.43 1011.18 1010.89 1010.57 1010.19 1009.76 1009.27 1008.72 1008.12
Thickness
5520 5514 5508 5503 5497 5491 5485 5477 5469 5466 5467 5466 5462 5461 5456 5452 5449 5445 5442 5439 5436 5434 5431 5429 5427 5424 5422 5420 5418 5417 5416 5415 5414 5414 5415 5416 5417 5420
5512 5506 5500 5495 5489 5483 5476 5470 5463 5457 5455 5456 5453 5449 5446 5441 5437 5433 5430 5426 5422 5419 5416 5413 5410 5407 5404 5402 5399 5397 5395 5394 5393 5393 5393 5394 5396 5398
5505 5498 5493 5487 5480 5474 5468 5461 5455 5448 5446 5450 5444 5440 5435 5430 5426 5421 5416 5412 5407 5403 5400 5397 5393 5389 5385 5382 5379 5376 5374 5373 5372 5371 5371 5372 5373 5376
5497 5491 5485 5479 5472 5466 5459 5453 5447 5441 5435 5436 5435 5428 5422 5417 5413 5407 5403 5398 5392 5387 5383 5379 5374 5370 5366 5363 5359 5357 5354 5352 5351 5350 5350 5351 5352 5354
5490 5483 5477 5470 5464 5457 5451 5444 5438 5433 5426 5422 5422 5415 5409 5403 5398 5394 5388 5382 5376 5370 5366 5360 5356 5351 5347 5344 5341 5338 5335 5333 5332 5331 5330 5331 5332 5335
5483 5476 5469 5462 5456 5449 5442 5436 5429 5422 5416 5410 5407 5402 5395 5389 5382 5377 5374 5367 5361 5354 5348 5343 5338 5334 5329 5326 5323 5320 5318 5316 5314 5314 5314 5315 5316 5318
5474 5468 5461 5455 5448 5441 5434 5427 5419 5412 5404 5398 5393 5388 5382 5373 5366 5361 5357 5353 5347 5339 5334 5328 5322 5317 5312 5308 5305 5303 5302 5300 5299 5299 5300 5302 5304 5306
5466 5459 5453 5446 5439 5433 5427 5419 5411 5401 5392 5385 5380 5372 5367 5359 5353 5346 5339 5336 5334 5327 5318 5315 5307 5303 5298 5295 5292 5290 5289 5287 5287 5288 5289 5290 5293 5296
5458 5451 5445 5438 5431 5423 5416 5409 5399 5390 5382 5373 5366 5359 5352 5346 5339 5333 5325 5319 5316 5310 5303 5304 5296 5291 5287 5283 5281 5279 5278 5277 5277 5278 5279 5281 5284 5287
5450 5443 5435 5428 5420 5412 5405 5396 5387 5378 5369 5361 5353 5347 5340 5333 5326 5320 5314 5309 5305 5297 5289 5287 5286 5281 5278 5273 5270 5269 5268 5268 5268 5269 5271 5273 5277 5281
5441 5433 5425 5417 5411 5404 5395 5385 5377 5367 5358 5350 5342 5335 5328 5321 5314 5307 5300 5294 5292 5287 5278 5273 5273 5271 5269 5265 5263 5261 5260 5260 5261 5263 5265 5268 5272 5276
5431 5423 5416 5408 5401 5392 5382 5372 5364 5356 5347 5339 5330 5322 5314 5306 5299 5291 5284 5279 5276 5273 5269 5262 5260 5257 5259 5258 5255 5253 5253 5254 5256 5258 5260 5264 5269 5272
5420 5412 5405 5398 5390 5381 5372 5361 5353 5346 5337 5327 5318 5310 5302 5294 5286 5279 5273 5266 5262 5259 5256 5252 5250 5247 5244 5248 5249 5249 5249 5250 5251 5254 5257 5261 5265 5269
5411 5403 5395 5388 5379 5370 5360 5351 5343 5334 5324 5314 5305 5297 5290 5282 5276 5270 5264 5259 5254 5251 5248 5244 5242 5240 5240 5241 5243 5245 5246 5247 5249 5251 5254 5258 5262 5266
5402 5394 5385 5376 5367 5357 5348 5339 5330 5319 5310 5301 5294 5287 5279 5273 5267 5261 5256 5252 5248 5244 5242 5240 5238 5237 5236 5236 5238 5240 5242 5245 5247 5249 5251 5255 5259 5262
5390 5382 5374 5364 5354 5345 5335 5325 5315 5306 5298 5290 5283 5277 5270 5263 5257 5252 5247 5243 5239 5238 5238 5237 5236 5234 5234 5234 5235 5237 5238 5240 5244 5247 5250 5254 5258 5261
5379 5369 5358 5349 5340 5331 5322 5313 5303 5295 5286 5279 5273 5266 5261 5255 5250 5245 5239 5235 5231 5230 5231 5233 5233 5233 5233 5233 5234 5236 5238 5240 5243 5245 5248 5252 5257 5261
5368 5356 5347 5337 5328 5320 5311 5302 5293 5285 5277 5270 5264 5257 5252 5247 5242 5238 5233 5229 5226 5225 5225 5227 5228 5229 5230 5233 5235 5235 5236 5239 5242 5244 5246 5250 5256 5261
5354 5344 5334 5326 5317 5308 5300 5291 5283 5276 5269 5262 5256 5250 5245 5240 5236 5232 5228 5225 5223 5222 5222 5223 5223 5223 5224 5226 5232 5236 5235 5238 5241 5244 5247 5250 5254 5261
5341 5331 5323 5314 5306 5297 5290 5282 5274 5267 5261 5254 5249 5243 5238 5235 5231 5228 5224 5222 5220 5219 5219 5219 5220 5220 5222 5224 5228 5232 5236 5237 5240 5243 5248 5252 5256 5262
5329 5320 5312 5303 5295 5288 5281 5274 5267 5260 5254 5248 5243 5239 5234 5230 5227 5224 5221 5221 5219 5217 5216 5217 5219 5222 5222 5223 5225 5230 5236 5239 5242 5244 5248 5252 5256 5262
5319 5310 5302 5294 5286 5279 5272 5266 5260 5254 5249 5244 5239 5235 5231 5227 5224 5221 5218 5216 5215 5214 5214 5216 5218 5219 5220 5222 5224 5228 5233 5239 5244 5248 5251 5254 5255 5260
5309 5301 5293 5285 5278 5271 5265 5259 5254 5250 5245 5240 5235 5231 5228 5224 5222 5219 5216 5214 5213 5213 5213 5214 5216 5217 5219 5221 5223 5227 5231 5237 5242 5247 5252 5257 5260 5264